Date String (YYYY-MM-DD hh:mm:ss) UTC,Instrument flags,absolute air pressure of the measurement (hPa),sample flow rate (lpm),inlet stack bypass flow (lpm),air temperature of the measurement (°C),ambient temperature measured by the external sensor (°C),aerosol sample conditioner tube jacket temperature (°C),OPC LED temperature (°C),internal box temperature (°C),relative humidity of the measurement (%),span deviation,mass concentration of particles derived from Lorenz-Mie calculation of OPC scattering (μg/m³),mass concentration of particles derived from Lorenz-Mie calculation of OPC scattering (μg/m³),mass concentration of particles derived from Lorenz-Mie calculation of OPC scattering (μg/m³)
DateTimeUTC,F1_M11,P_M11,Q1_M11,Q2_M11,T1_M11,T2_M11,T3_M11,T4_M11,T5_M11,U1_M11,ZSPAN_M11,X0_M11,X2_M11,X1_M11
2023-06-06 08:00:00,SystemResetWarning,0832.4,4.99,000.00,029.6,027.9,000.0,038.1,031.0,23.3,0000.0,0005.19,0003.15,0002.71
2023-06-06 08:01:00,SystemResetWarning,0832.4,4.99,000.00,029.6,027.9,000.0,038.1,031.0,23.6,0000.0,0005.35,0003.18,0002.74
2023-06-06 08:02:00,SystemResetWarning,0832.4,4.99,000.00,029.6,027.9,000.0,038.1,031.1,23.8,0000.0,0005.91,0003.21,0002.77
2023-06-06 08:03:00,SystemResetWarning,0832.4,5.01,000.00,029.6,027.9,000.0,038.1,031.1,23.9,0000.0,0006.47,0003.25,0002.80
2023-06-06 08:04:00,SystemResetWarning,0832.5,5.01,000.00,029.6,027.9,000.0,038.1,031.1,24.0,0000.0,0006.58,0003.28,0002.83
2023-06-06 08:05:00,SystemResetWarning,0832.4,4.99,000.00,029.6,027.9,000.0,038.1,031.1,24.2,0000.0,0006.53,0003.27,0002.87
2023-06-06 08:06:00,SystemResetWarning,0832.4,4.99,000.00,029.6,027.9,000.0,038.1,031.1,24.4,0000.0,0006.55,0003.29,0002.92
2023-06-06 08:07:00,SystemResetWarning,0832.4,5.00,000.00,029.6,027.8,000.0,038.1,031.0,24.5,0000.0,0006.58,0003.32,0002.97
2023-06-06 08:08:00,SystemResetWarning,0832.4,5.01,000.00,029.6,027.8,000.0,038.2,031.0,24.6,0000.0,0006.85,0003.39,0003.04
2023-06-06 08:09:00,SystemResetWarning,0832.4,5.00,000.00,029.6,027.8,000.0,038.2,031.0,24.8,0000.0,0007.02,0003.46,0003.10
2023-06-06 08:10:00,SystemResetWarning,0832.5,5.00,000.00,029.6,027.8,000.0,038.2,031.0,24.9,0000.0,0007.25,0003.54,0003.16
2023-06-06 08:11:00,SystemResetWarning,0832.5,4.98,000.00,029.6,027.8,000.0,038.1,031.0,24.9,0000.0,0006.59,0003.59,0003.20
2023-06-06 08:12:00,SystemResetWarning,0832.4,5.04,000.00,029.6,027.8,000.0,038.1,031.0,25.0,0000.0,0006.70,0003.64,0003.24
2023-06-06 08:13:00,SystemResetWarning,0832.5,4.96,000.00,029.6,027.8,000.0,038.1,031.0,25.2,0000.0,0006.58,0003.72,0003.29
2023-06-06 08:14:00,SystemResetWarning,0832.4,5.02,000.00,029.6,027.8,000.0,038.1,031.0,25.5,0000.0,0006.53,0003.79,0003.34
2023-06-06 08:15:00,SystemResetWarning,0832.4,5.00,000.00,029.6,027.8,000.0,038.1,031.0,26.0,0000.0,0006.85,0003.87,0003.42
2023-06-06 08:16:00,SystemResetWarning,0832.4,4.99,000.00,029.6,027.8,000.0,038.1,031.0,25.9,0000.0,0007.30,0003.95,0003.50
2023-06-06 08:17:00,SystemResetWarning,0832.4,4.99,000.00,029.6,027.8,000.0,038.1,031.0,25.7,0000.0,0007.54,0004.01,0003.54
2023-06-06 08:18:00,SystemResetWarning,0832.4,5.00,000.00,029.6,027.8,000.0,038.1,031.0,25.5,0000.0,0007.73,0004.04,0003.57
2023-06-06 08:19:00,SystemResetWarning,0832.4,5.01,000.00,029.6,027.8,000.0,038.1,031.0,25.6,0000.0,0007.72,0004.06,0003.60
2023-06-06 08:20:00,SystemResetWarning,0832.4,5.01,000.00,029.6,027.8,000.0,038.1,031.1,25.6,0000.0,0007.78,0004.07,0003.62
2023-06-06 08:21:00,SystemResetWarning,0832.4,5.00,000.00,029.6,027.8,000.0,038.1,031.0,25.7,0000.0,0007.72,0004.06,0003.63
2023-06-06 08:22:00,SystemResetWarning,0832.4,5.00,000.00,029.6,027.8,000.0,038.1,031.0,25.6,0000.0,0008.03,0004.08,0003.65
2023-06-06 08:23:00,SystemResetWarning,0832.4,4.99,000.00,029.6,027.8,000.0,038.1,031.0,25.7,0000.0,0008.16,0004.10,0003.68
2023-06-06 08:24:00,SystemResetWarning,0832.4,5.01,000.00,029.6,027.8,000.0,038.1,031.1,25.8,0000.0,0008.15,0004.09,0003.70
2023-06-06 08:25:00,SystemResetWarning,0832.4,4.99,000.00,029.6,027.8,000.0,038.1,031.0,25.9,0000.0,0008.09,0004.10,0003.72
2023-06-06 08:26:00,SystemResetWarning,0832.5,4.99,000.00,029.6,027.8,000.0,038.1,031.0,25.9,0000.0,0008.01,0004.10,0003.71
2023-06-06 08:27:00,SystemResetWarning,0832.5,5.01,000.00,029.6,027.8,000.0,038.1,031.1,26.0,0000.0,0007.86,0004.12,0003.71
2023-06-06 08:28:00,SystemResetWarning,0832.5,5.01,000.00,029.6,027.8,000.0,038.1,031.1,26.1,0000.0,0007.76,0004.14,0003.75
2023-06-06 08:29:00,SystemResetWarning,0832.5,5.00,000.00,029.6,027.8,000.0,038.1,031.0,26.2,0000.0,0007.77,0004.20,0003.78
2023-06-06 08:30:00,SystemResetWarning,0832.5,4.98,000.00,029.6,027.8,000.0,038.1,031.0,26.3,0000.0,0007.80,0004.23,0003.82
2023-06-06 08:31:00,SystemResetWarning,0832.5,5.01,000.00,029.6,027.8,000.0,038.1,031.0,26.5,0000.0,0007.79,0004.26,0003.87
2023-06-06 08:32:00,SystemResetWarning,0832.5,5.01,000.00,029.6,027.8,000.0,038.1,031.0,26.5,0000.0,0007.82,0004.29,0003.91
2023-06-06 08:33:00,SystemResetWarning,0832.5,5.01,000.00,029.6,027.8,000.0,038.1,031.0,26.3,0000.0,0007.51,0004.32,0003.94
2023-06-06 08:34:00,SystemResetWarning,0832.5,4.98,000.00,029.6,027.8,000.0,038.2,031.0,25.6,0000.0,0007.35,0004.32,0003.93
2023-06-06 08:35:00,SystemResetWarning,0832.6,5.01,000.00,029.6,027.8,000.0,038.1,031.0,25.2,0000.0,0007.39,0004.32,0003.91
2023-06-06 08:36:00,SystemResetWarning,0832.5,5.01,000.00,029.6,027.8,000.0,038.1,031.0,25.1,0000.0,0007.61,0004.32,0003.87
2023-06-06 08:37:00,SystemResetWarning,0832.5,4.97,000.00,029.6,027.8,000.0,038.1,031.0,25.1,0000.0,0007.94,0004.33,0003.84
2023-06-06 08:38:00,SystemResetWarning,0832.5,5.01,000.00,029.6,027.8,000.0,038.1,031.0,25.2,0000.0,0008.08,0004.33,0003.82
2023-06-06 08:39:00,SystemResetWarning,0832.5,5.01,000.00,029.6,027.8,000.0,038.1,031.0,25.0,0000.0,0008.11,0004.31,0003.78
2023-06-06 08:40:00,SystemResetWarning,0832.6,5.00,000.00,029.6,027.8,000.0,038.1,031.0,24.6,0000.0,0007.94,0004.26,0003.74
2023-06-06 08:41:00,SystemResetWarning,0832.5,4.98,000.00,029.6,027.8,000.0,038.1,031.0,24.3,0000.0,0007.82,0004.20,0003.68
2023-06-06 08:42:00,SystemResetWarning,0832.6,5.02,000.00,029.6,027.8,000.0,038.1,031.0,24.2,0000.0,0007.75,0004.14,0003.62
2023-06-06 08:43:00,SystemResetWarning,0832.6,4.99,000.00,029.6,027.8,000.0,038.1,031.0,24.1,0000.0,0008.10,0004.09,0003.56
2023-06-06 08:44:00,SystemResetWarning,0832.5,4.99,000.00,029.6,027.8,000.0,038.1,031.0,24.2,0000.0,0008.07,0004.03,0003.51
2023-06-06 08:45:00,SystemResetWarning,0832.5,5.02,000.00,029.6,027.8,000.0,038.1,031.0,24.1,0000.0,0007.97,0003.95,0003.47
2023-06-06 08:46:00,SystemResetWarning,0832.5,5.00,000.00,029.6,027.8,000.0,038.1,031.0,24.1,0000.0,0007.87,0003.91,0003.45
2023-06-06 08:47:00,SystemResetWarning,0832.5,4.99,000.00,029.6,027.8,000.0,038.1,031.0,24.1,0000.0,0007.57,0003.85,0003.44
2023-06-06 08:48:00,SystemResetWarning,0832.5,5.00,000.00,029.6,027.8,000.0,038.1,031.0,24.1,0000.0,0006.87,0003.80,0003.43
2023-06-06 08:49:00,SystemResetWarning,0832.5,5.00,000.00,029.6,027.8,000.0,038.1,031.0,24.2,0000.0,0006.46,0003.75,0003.42
2023-06-06 08:50:00,SystemResetWarning,0832.4,5.01,000.00,029.6,027.8,000.0,038.1,031.0,24.3,0000.0,0006.20,0003.71,0003.41
2023-06-06 08:51:00,SystemResetWarning,0832.4,5.01,000.00,029.6,027.8,000.0,038.1,031.0,24.3,0000.0,0006.24,0003.70,0003.42
2023-06-06 08:52:00,SystemResetWarning,0832.3,5.00,000.00,029.6,027.8,000.0,038.1,031.0,24.5,0000.0,0006.33,0003.72,0003.44
2023-06-06 08:53:00,SystemResetWarning,0832.3,5.00,000.00,029.6,027.8,000.0,038.1,031.0,24.6,0000.0,0006.57,0003.74,0003.46
2023-06-06 08:54:00,SystemResetWarning,0832.4,4.99,000.00,029.6,027.8,000.0,038.1,031.0,24.7,0000.0,0006.84,0003.75,0003.48
2023-06-06 08:55:00,SystemResetWarning,0832.4,4.99,000.00,029.6,027.8,000.0,038.1,031.0,24.9,0000.0,0006.88,0003.79,0003.50
2023-06-06 08:56:00,SystemResetWarning,0832.4,5.00,000.00,029.6,027.8,000.0,038.1,031.0,24.9,0000.0,0007.11,0003.85,0003.52
2023-06-06 08:57:00,SystemResetWarning,0832.4,5.02,000.00,029.6,027.8,000.0,038.1,030.9,24.7,0000.0,0007.28,0003.91,0003.54
2023-06-06 08:58:00,SystemResetWarning,0832.4,5.00,000.00,029.6,027.8,000.0,038.1,031.0,24.6,0000.0,0007.37,0003.94,0003.55
2023-06-06 08:59:00,SystemResetWarning,0832.4,4.99,000.00,029.6,027.8,000.0,038.1,031.0,24.5,0000.0,0007.47,0003.94,0003.55
